Wind_Speed
17 16 16 15 15 15 15 14 14 13 12 12 12 13 14 15 16 17 17 18 18 18 18 18 19 19 19 19 20 20 20 20 20 21 21 21 22 22 23 23 23 23 23
18 18 17 17 17 17 16 16 16 15 14 14 15 15 16 17 18 19 19 19 18 19 20 21 21 21 22 23 23 23 23 23 23 24 24 25 25 25 26 26 26 26 27
19 19 19 19 19 19 18 18 17 17 17 17 17 17 18 19 19 20 20 20 20 20 21 22 23 23 24 25 25 25 25 25 26 27 28 28 29 29 30 30 30 30 30
21 21 20 20 20 20 19 19 19 19 19 20 19 19 19 20 21 21 22 22 22 22 22 22 23 24 25 26 27 27 27 28 29 30 30 32 33 33 34 34 34 34 34
23 22 22 21 21 21 20 20 20 21 21 22 22 22 22 22 23 23 24 24 24 23 23 24 24 25 27 28 28 28 29 30 32 33 33 34 36 37 37 37 37 37 37
24 24 23 23 22 23 23 23 23 23 24 24 24 25 25 24 24 25 25 25 25 25 25 26 26 26 28 29 29 30 32 33 34 35 36 37 38 39 40 41 41 41 41
25 25 26 26 25 25 25 25 24 25 26 26 26 26 27 27 26 25 26 26 27 27 28 28 29 29 30 30 31 32 34 35 36 37 39 41 42 43 44 46 46 46 47
28 29 29 28 28 28 27 27 26 26 27 28 29 28 27 27 27 27 28 29 29 30 30 31 32 33 33 33 34 35 36 37 39 41 42 44 46 47 48 49 49 50 51
30 31 30 29 29 29 28 28 27 27 28 29 30 29 27 27 28 29 30 30 31 32 33 35 35 35 36 36 37 38 39 39 42 43 45 47 49 51 52 53 52 53 55
30 30 30 30 29 29 30 30 29 28 28 27 29 29 28 28 27 28 29 31 32 33 34 35 36 37 38 38 39 41 43 44 45 46 48 51 54 55 55 56 57 58 59
31 31 30 31 30 29 29 29 27 26 26 26 27 28 29 28 28 29 30 31 33 34 36 37 38 39 40 42 43 44 46 47 48 50 52 54 56 56 57 59 60 62 63
32 32 32 32 31 30 29 27 27 26 26 26 27 27 28 29 30 32 32 33 35 37 38 39 40 42 43 45 46 47 49 50 51 53 54 56 58 59 61 62 62 64 65
31 31 32 31 29 28 26 26 25 26 27 28 29 29 30 32 34 35 36 37 39 40 41 42 44 46 47 48 49 51 52 53 54 56 56 58 60 63 63 63 64 64 65
27 28 27 27 26 25 25 25 27 28 30 31 32 33 34 36 37 38 40 41 43 44 45 46 47 49 49 51 53 54 55 55 56 57 58 60 61 63 63 63 65 66 66
24 25 25 25 25 25 26 27 30 32 33 34 36 37 39 40 41 42 43 44 46 47 48 49 50 51 52 54 55 56 57 58 59 60 60 61 62 63 64 64 65 66 65
23 24 25 26 26 28 30 31 33 34 36 37 39 40 41 42 43 45 46 47 48 49 51 52 53 54 55 55 56 58 59 60 60 61 61 61 61 62 62 62 62 62 62
24 25 27 28 29 31 32 33 35 37 38 40 40 41 43 44 45 47 48 49 51 52 53 53 54 56 57 57 57 58 59 59 59 58 58 59 58 58 58 58 58 57 57
26 27 28 30 31 33 34 36 38 39 40 41 42 43 44 45 46 47 48 49 51 52 52 53 54 56 57 58 58 58 58 57 57 57 57 56 54 53 54 54 54 53 52
28 29 30 32 33 35 36 38 39 40 41 41 42 43 44 44 44 45 46 47 48 49 50 51 52 52 53 53 53 54 54 53 53 52 52 52 50 49 48 48 47 46 46
30 31 32 33 34 36 37 38 39 40 41 41 42 42 42 42 43 43 44 45 45 46 46 46 46 46 47 48 48 47 46 46 46 45 44 44 43 42 41 41 40 40 39
30 31 32 33 34 35 36 37 38 38 39 39 39 39 40 40 40 40 40 40 40 40 40 40 39 39 39 38 38 38 37 37 36 36 37 36 36 37 36 35 35 35 34
29 30 31 32 33 34 34 35 35 36 37 37 36 35 35 35 35 35 35 34 34 34 34 33 33 32 31 31 31 30 30 30 30 30 30 30 30 30 29 29 29 29 29
28 28 29 30 31 31 32 33 33 33 32 31 30 30 30 30 30 29 29 30 29 29 28 27 26 26 25 25 25 25 25 25 24 25 25 25 25 24 24 24 24 24 24
26 26 27 28 29 29 29 29 29 27 26 26 27 26 26 26 25 25 25 25 25 24 23 22 22 22 22 22 21 21 21 21 21 20 20 20 20 19 19 19 19 20 21
23 23 24 24 25 25 25 24 23 22 21 22 22 22 21 21 21 21 21 21 21 20 19 19 19 18 18 17 17 17 16 16 16 16 15 16 15 15 16 16 17 18 19
21 21 21 21 21 21 20 18 17 17 17 17 17 17 16 17 17 18 18 18 18 17 17 16 16 15 15 14 14 14 14 14 13 13 13 13 12 13 14 14 15 16 18
Wind_Direction
222 223 225 230 234 237 240 244 249 254 257 263 270 275 278 283 287 289 290 287 283 279 277 278 278 275 274 275 274 274 275 275 275 275 275 275 275 274 274 274 274 274 273
225 226 229 233 237 240 244 249 254 258 265 270 273 276 280 282 286 287 288 286 282 279 278 278 276 275 274 274 273 274 274 274 274 273 273 272 273 273 273 274 274 273 273
228 230 233 236 239 242 246 252 259 265 268 272 276 278 280 284 286 288 286 285 282 279 279 279 276 275 274 273 273 274 274 274 274 273 273 272 272 273 273 273 273 272 272
233 235 237 240 243 245 249 254 261 266 270 273 276 278 279 282 285 286 285 283 282 280 280 281 281 277 276 274 272 273 275 275 274 274 274 273 272 272 273 274 274 273 272
237 239 241 244 246 249 253 258 262 267 271 274 275 276 277 279 283 283 284 282 281 280 280 281 282 279 275 274 272 273 274 275 275 274 274 274 274 273 273 273 273 274 274
239 241 243 245 248 251 254 258 261 266 271 273 274 275 276 277 282 283 282 281 279 278 279 278 278 277 276 273 271 272 273 275 276 275 274 275 275 274 274 273 273 274 274
241 244 246 247 249 251 254 257 262 268 271 272 274 275 274 275 277 279 279 278 277 276 276 278 277 275 274 273 271 272 273 274 274 274 275 276 275 275 274 274 275 275 276
243 246 246 250 252 254 255 258 264 269 271 273 274 275 274 272 275 277 277 276 276 275 274 275 275 274 273 272 271 271 272 273 273 274 275 276 276 275 275 274 275 276 277
246 247 250 254 253 254 259 261 265 269 271 273 275 276 273 269 271 274 274 275 275 276 275 274 273 274 273 272 272 272 271 271 272 274 274 274 275 276 276 277 277 277 278
246 249 250 254 255 258 261 263 265 267 273 274 272 272 273 273 274 274 274 275 276 277 275 274 275 275 275 274 274 273 272 272 271 272 274 274 275 275 275 276 277 277 278
246 248 251 255 260 263 264 266 270 270 275 276 275 274 274 275 277 279 278 278 278 278 277 276 275 275 274 275 275 274 273 273 273 274 275 276 274 275 275 277 277 276 277
250 252 255 258 261 265 268 270 273 276 279 279 280 278 277 277 278 279 279 279 279 278 277 275 275 275 275 275 275 274 274 274 274 275 274 274 275 277 278 278 277 277 277
254 255 258 260 264 268 271 275 277 279 281 282 282 281 281 281 281 282 281 281 281 280 279 277 276 275 276 275 275 275 275 275 275 275 275 275 276 277 277 276 277 277 278
261 263 265 266 269 273 277 278 279 281 282 283 283 283 283 283 283 283 283 282 281 281 280 279 277 276 276 276 276 276 276 277 276 275 276 276 276 276 276 276 278 279 280
269 269 274 276 278 280 281 283 282 282 282 284 285 284 284 284 284 284 283 283 283 282 281 280 279 278 277 276 276 276 276 276 276 276 276 276 276 276 277 278 279 280 280
274 276 276 278 279 280 283 283 283 284 285 286 287 287 286 285 285 285 284 284 283 282 281 281 279 278 278 277 277 276 276 277 277 276 277 277 277 277 278 279 280 281 283
278 277 278 280 281 283 284 284 285 287 288 288 288 287 286 286 286 285 285 284 284 283 282 280 279 278 277 277 276 276 276 276 276 277 277 278 278 279 279 280 282 285 286
279 279 281 282 283 284 286 287 288 289 289 289 289 289 288 288 287 286 286 285 284 283 282 281 280 279 278 278 277 276 276 276 276 278 279 279 280 281 282 283 285 287 288
281 281 282 283 285 286 287 289 290 290 290 290 290 290 289 289 288 288 287 287 285 284 284 283 282 281 281 280 279 278 278 279 279 279 280 280 282 283 284 286 288 290 292
280 281 283 285 286 288 289 290 291 291 291 291 291 291 290 290 289 289 289 288 288 287 287 286 285 284 283 283 282 282 282 282 282 282 282 282 283 284 287 290 292 294 295
281 283 285 287 288 289 290 291 292 292 292 292 291 291 290 291 291 292 292 292 292 292 290 290 290 289 288 287 287 287 287 286 286 285 285 286 287 289 292 293 295 297 299
282 284 286 288 290 291 292 292 293 293 293 292 292 292 294 295 295 296 297 297 297 296 295 295 295 294 294 293 293 293 291 289 289 290 290 291 293 295 297 299 300 302 302
284 286 288 290 292 293 294 295 295 295 295 295 295 297 299 300 300 301 302 303 304 304 304 303 302 300 301 299 298 297 296 296 296 296 296 299 300 301 302 304 305 306 307
285 287 290 292 294 296 298 299 298 297 298 299 301 302 304 304 305 307 309 310 311 312 313 313 312 309 307 306 304 302 301 302 302 302 302 304 304 305 307 309 311 312 315
287 290 293 296 298 300 302 302 301 302 304 306 308 311 313 313 315 318 320 321 320 320 319 320 319 319 318 317 316 314 313 312 311 309 309 311 312 313 316 318 320 322 324
288 292 296 299 302 304 305 307 309 310 314 317 320 323 326 329 331 332 332 332 331 331 331 331 331 333 333 333 329 327 326 323 321 320 320 321 321 324 326 328 330 331 332
Height
5869 5870 5871 5872 5872 5873 5874 5875 5875 5876 5876 5877 5877 5876 5876 5875 5874 5873 5872 5871 5871 5870 5870 5869 5868 5868 5868 5868 5867 5868 5868 5867 5867 5867 5867 5866 5866 5865 5865 5864 5864 5863 5863
5865 5866 5867 5868 5869 5870 5870 5871 5872 5872 5873 5873 5873 5873 5872 5871 5870 5869 5868 5867 5867 5866 5866 5865 5864 5864 5863 5863 5863 5863 5863 5863 5862 5862 5862 5861 5860 5860 5859 5859 5858 5858 5857
5861 5863 5864 5865 5865 5866 5866 5867 5868 5868 5869 5869 5868 5868 5868 5867 5866 5865 5864 5863 5862 5862 5861 5861 5860 5859 5858 5858 5858 5857 5857 5857 5857 5856 5856 5855 5854 5854 5853 5852 5851 5851 5850
5857 5858 5860 5860 5861 5861 5862 5863 5863 5864 5864 5864 5863 5863 5863 5862 5861 5860 5859 5858 5857 5857 5856 5856 5855 5854 5854 5853 5852 5852 5851 5851 5850 5850 5849 5848 5848 5847 5846 5845 5844 5843 5843
5852 5854 5855 5856 5856 5857 5858 5858 5859 5859 5859 5858 5858 5858 5857 5857 5856 5855 5854 5853 5852 5852 5851 5850 5849 5849 5848 5847 5846 5846 5845 5844 5843 5842 5842 5841 5840 5839 5837 5837 5836 5835 5834
5848 5849 5850 5851 5851 5852 5852 5852 5853 5853 5853 5853 5853 5852 5852 5851 5850 5849 5848 5848 5847 5846 5845 5844 5843 5842 5842 5841 5840 5839 5838 5837 5836 5834 5833 5832 5831 5830 5829 5827 5826 5825 5824
5842 5843 5843 5844 5845 5846 5846 5846 5847 5847 5846 5846 5846 5846 5845 5845 5844 5843 5842 5842 5841 5840 5839 5838 5836 5835 5835 5834 5833 5832 5831 5829 5827 5826 5825 5823 5822 5820 5819 5817 5816 5815 5814
5836 5837 5838 5838 5839 5840 5840 5840 5841 5841 5840 5840 5839 5839 5838 5839 5838 5837 5836 5835 5834 5832 5832 5830 5829 5828 5827 5826 5825 5824 5823 5821 5819 5817 5815 5813 5812 5810 5808 5806 5805 5803 5802
5830 5831 5832 5832 5833 5833 5833 5834 5834 5834 5833 5832 5832 5831 5831 5831 5831 5830 5828 5827 5826 5825 5824 5823 5821 5820 5819 5817 5816 5815 5813 5812 5810 5807 5805 5803 5801 5798 5796 5794 5792 5790 5788
5823 5824 5825 5825 5826 5826 5827 5827 5827 5827 5826 5825 5825 5824 5824 5823 5823 5822 5821 5819 5818 5816 5815 5814 5813 5811 5810 5808 5806 5805 5803 5801 5799 5797 5794 5792 5789 5786 5783 5781 5779 5776 5774
5817 5817 5818 5819 5819 5820 5820 5820 5820 5819 5819 5818 5818 5817 5816 5815 5815 5814 5813 5812 5810 5808 5806 5805 5803 5802 5800 5798 5796 5794 5792 5790 5788 5785 5782 5779 5776 5773 5770 5768 5765 5762 5760
5809 5811 5811 5812 5813 5813 5813 5813 5813 5812 5811 5811 5810 5809 5809 5808 5807 5806 5804 5803 5801 5799 5797 5795 5793 5791 5789 5787 5785 5782 5780 5777 5775 5772 5769 5766 5763 5760 5756 5753 5750 5747 5743
5802 5804 5805 5806 5806 5806 5806 5806 5806 5805 5805 5804 5804 5803 5801 5800 5799 5797 5795 5793 5791 5789 5787 5785 5783 5780 5777 5775 5772 5769 5767 5764 5761 5758 5755 5752 5749 5745 5741 5737 5734 5730 5726
5796 5796 5797 5798 5798 5799 5799 5799 5798 5798 5797 5796 5795 5794 5792 5791 5789 5787 5785 5783 5780 5778 5775 5773 5771 5768 5765 5762 5759 5756 5753 5750 5747 5744 5740 5737 5733 5729 5726 5722 5718 5714 5710
5789 5790 5791 5791 5791 5791 5791 5791 5791 5790 5789 5787 5786 5784 5783 5780 5778 5776 5774 5771 5769 5765 5762 5760 5757 5754 5751 5748 5745 5741 5738 5735 5731 5728 5725 5722 5718 5714 5710 5705 5702 5697 5694
5783 5783 5784 5784 5784 5784 5783 5783 5782 5781 5779 5777 5776 5774 5772 5769 5766 5764 5761 5758 5755 5752 5748 5745 5742 5739 5735 5732 5729 5725 5722 5719 5716 5712 5709 5705 5702 5698 5694 5690 5685 5681 5677
5775 5776 5776 5776 5776 5775 5775 5774 5772 5770 5769 5767 5764 5762 5760 5757 5754 5751 5748 5744 5741 5737 5733 5730 5726 5723 5719 5716 5712 5709 5705 5702 5699 5696 5692 5689 5685 5682 5678 5674 5670 5666 5662
5768 5768 5768 5767 5767 5766 5765 5764 5762 5760 5758 5755 5753 5750 5747 5744 5741 5737 5734 5730 5726 5722 5718 5714 5710 5706 5702 5698 5695 5692 5689 5686 5683 5679 5676 5673 5670 5667 5663 5660 5656 5653 5649
5760 5760 5759 5759 5758 5757 5755 5753 5751 5749 5746 5744 5741 5738 5734 5731 5728 5724 5720 5716 5711 5707 5703 5698 5694 5689 5685 5682 5678 5675 5673 5670 5667 5664 5662 5660 5657 5654 5651 5648 5644 5640 5637
5752 5751 5751 5750 5748 5747 5745 5743 5740 5738 5735 5732 5729 5725 5722 5718 5715 5711 5706 5702 5697 5693 5688 5684 5679 5675 5671 5667 5664 5661 5658 5656 5654 5651 5649 5647 5645 5642 5640 5637 5634 5630 5626
5743 5743 5742 5740 5739 5737 5735 5732 5730 5727 5724 5720 5717 5714 5710 5706 5702 5698 5694 5689 5684 5680 5675 5670 5666 5662 5658 5654 5652 5649 5647 5645 5643 5641 5639 5637 5635 5633 5630 5627 5624 5621 5617
5735 5734 5733 5731 5730 5727 5725 5722 5719 5716 5713 5710 5706 5703 5699 5695 5691 5687 5683 5678 5674 5669 5664 5660 5656 5652 5648 5645 5643 5640 5638 5636 5635 5633 5630 5628 5626 5624 5622 5619 5616 5613 5609
5727 5726 5724 5723 5721 5718 5715 5713 5709 5706 5703 5699 5696 5692 5689 5685 5681 5677 5673 5669 5665 5660 5656 5652 5647 5644 5641 5638 5636 5634 5632 5630 5628 5626 5624 5622 5620 5618 5616 5613 5610 5606 5603
5719 5718 5716 5714 5712 5710 5707 5703 5700 5697 5694 5691 5687 5684 5681 5677 5673 5670 5666 5662 5657 5653 5649 5645 5642 5638 5636 5633 5631 5629 5626 5624 5623 5621 5619 5617 5615 5613 5611 5608 5605 5601 5598
5712 5711 5709 5707 5705 5702 5699 5696 5693 5690 5687 5684 5680 5677 5674 5670 5667 5663 5660 5656 5652 5649 5645 5641 5638 5635 5632 5629 5627 5625 5622 5621 5619 5617 5615 5613 5611 5609 5606 5604 5601 5597 5594
5705 5704 5702 5700 5698 5695 5692 5689 5687 5684 5681 5679 5676 5672 5669 5666 5663 5659 5656 5653 5649 5646 5642 5638 5635 5632 5629 5627 5624 5622 5620 5618 5616 5614 5612 5610 5608 5606 5604 5601 5598 5594 5590